Mason, MI

1:40 PM EDT on May 27, 2018 (GMT -0400)
Mason Jewett

Weather History for KTEW - May, 2013

Change the Weather History Date:

Tuesday, May 14, 2013

  Actual Average (KLAN) Record (KLAN)
Temperature  
Mean Temperature 61 °F -  
Max Temperature 77 °F 67 °F 88 °F (1870)
Min Temperature 45 °F 44 °F 26 °F (1895)
Degree Days  
Heating Degree Days 4    
Growing Degree Days 11 (Base 50)    
Moisture  
Dew Point 39 °F    
Average Humidity 45    
Maximum Humidity 78    
Minimum Humidity 33    
Precipitation  
Precipitation 0.00 in - - ()
Sea Level Pressure  
Sea Level Pressure 29.87 in    
Wind  
Wind Speed 5 mph (South)    
Max Wind Speed 16 mph    
Max Gust Speed 25 mph    
Visibility 10 miles    
Events Rain    
Averages and records for this station are not official NWS values.
T = Trace of Precipitation, MM = Missing Value Source: NWS Daily Summary

Daily Weather History Graph

Daily Weather History Graph

Search for Another Location

Airport or City:

Astronomy

May. 14, 2013 Rise Set
Actual Time 6:16 AM EDT 8:52 PM EDT
Civil Twilight 5:44 AM EDT 9:24 PM EDT
Nautical Twilight 5:03 AM EDT 10:05 PM EDT
Astronomical Twilight 4:18 AM EDT 10:51 PM EDT
Moon 9:55 AM EDT (5/14) No Moon Set
Length of Visible Light 15h 40m
Length of Day
14h 35m
Waxing Crescent, 19% of the Moon is Illuminated
May 14
Waxing Crescent
May 18
First Quarter
May 25
Full
May 31
Last Quarter
Jun 8
New

Hourly Weather History & Observations

Time (EDT) Temp. Windchill Dew Point Humidity Pressure Visibility Wind Dir Wind Speed Gust Speed Precip Events Conditions
12:15 AM 45.5 °F - 26.8 °F 48% 30.08 in 10.0 mi Calm Calm - N/A   Clear
12:34 AM 45.5 °F 44.2 °F 27.1 °F 49% 30.07 in 10.0 mi SSE 3.5 mph - N/A   Clear
12:54 AM 45.5 °F - 26.4 °F 47% 30.07 in 10.0 mi Calm Calm - N/A   Scattered Clouds
1:14 AM 45.5 °F 43.2 °F 27.9 °F 50% 30.07 in 10.0 mi SSE 4.6 mph - N/A   Overcast
1:34 AM 45.5 °F 44.2 °F 27.5 °F 49% 30.07 in 10.0 mi SSE 3.5 mph - N/A   Overcast
1:53 AM 45.5 °F 44.2 °F 28.4 °F 51% 30.06 in 10.0 mi SSE 3.5 mph - N/A   Mostly Cloudy
2:14 AM 45.9 °F - 28.8 °F 51% 30.06 in 10.0 mi Calm Calm - N/A   Scattered Clouds
2:34 AM 45.9 °F 44.6 °F 28.2 °F 50% 30.06 in 10.0 mi South 3.5 mph - N/A   Mostly Cloudy
2:53 AM 46.0 °F - 28.4 °F 50% 30.06 in 10.0 mi Calm Calm - N/A   Overcast
3:14 AM 45.9 °F 43.6 °F 29.1 °F 52% 30.04 in 10.0 mi SSE 4.6 mph - N/A   Overcast
3:34 AM 46.8 °F - 27.1 °F 46% 30.05 in 10.0 mi South 3.5 mph - N/A   Overcast
3:53 AM 46.6 °F - 28.2 °F 49% 30.05 in 10.0 mi Calm Calm - N/A   Overcast
4:14 AM 46.8 °F - 29.1 °F 50% 30.05 in 10.0 mi SSE 5.8 mph - N/A   Overcast
4:34 AM 46.6 °F - 30.0 °F 53% 30.05 in 10.0 mi Calm Calm - N/A   Overcast
4:53 AM 46.9 °F - 29.1 °F 50% 30.03 in 10.0 mi South 5.8 mph - N/A   Overcast
5:14 AM 47.7 °F - 27.9 °F 46% 30.02 in 10.0 mi SSE 4.6 mph - N/A   Overcast
5:34 AM 48.2 °F - 27.3 °F 44% 30.01 in 10.0 mi SSE 6.9 mph - N/A   Overcast
5:54 AM 48.2 °F - 27.7 °F 45% 30.00 in 10.0 mi SSE 9.2 mph - N/A   Overcast
6:14 AM 48.2 °F - 28.0 °F 46% 29.99 in 10.0 mi SSE 10.4 mph - N/A   Overcast
6:33 AM 48.4 °F - 27.5 °F 44% 29.97 in 10.0 mi SSE 11.5 mph - N/A   Mostly Cloudy
6:54 AM 49.3 °F - 27.3 °F 43% 29.97 in 10.0 mi SSE 9.2 mph - N/A   Overcast
7:14 AM 50.0 °F - 28.2 °F 43% 29.97 in 10.0 mi SSE 9.2 mph - N/A   Overcast
7:33 AM 50.9 °F - 28.6 °F 42% 29.95 in 10.0 mi South 11.5 mph 20.7 mph N/A   Mostly Cloudy
7:54 AM 51.1 °F - 28.8 °F 42% 29.96 in 10.0 mi South 9.2 mph 16.1 mph N/A   Scattered Clouds
8:14 AM 51.3 °F - 29.5 °F 43% 29.95 in 10.0 mi SSE 11.5 mph 16.1 mph N/A   Mostly Cloudy
8:34 AM 51.8 °F - 31.1 °F 45% 29.94 in 10.0 mi SSE 10.4 mph - N/A   Overcast
8:54 AM 52.2 °F - 31.6 °F 46% 29.94 in 10.0 mi SSE 11.5 mph 17.3 mph N/A   Overcast
9:14 AM 53.8 °F - 32.2 °F 44% 29.92 in 10.0 mi South 12.7 mph 16.1 mph N/A   Mostly Cloudy
9:34 AM 54.9 °F - 33.1 °F 44% 29.91 in 10.0 mi South 13.8 mph 18.4 mph N/A   Mostly Cloudy
9:54 AM 55.6 °F - 34.0 °F 44% 29.90 in 10.0 mi SSE 12.7 mph 17.3 mph N/A   Scattered Clouds
10:14 AM 57.9 °F - 34.5 °F 41% 29.88 in 10.0 mi SSE 15.0 mph 23.0 mph N/A   Scattered Clouds
10:34 AM 60.8 °F - 34.9 °F 38% 29.86 in 10.0 mi South 15.0 mph 21.9 mph N/A   Scattered Clouds
10:54 AM 62.1 °F - 35.6 °F 37% 29.84 in 10.0 mi South 15.0 mph 21.9 mph N/A   Scattered Clouds
11:14 AM 65.3 °F - 37.4 °F 36% 29.84 in 10.0 mi South 15.0 mph 25.3 mph N/A   Mostly Cloudy
11:34 AM 65.1 °F - 37.8 °F 36% 29.83 in 10.0 mi South 11.5 mph 19.6 mph N/A   Overcast
11:54 AM 67.1 °F - 38.7 °F 35% 29.82 in 10.0 mi South 11.5 mph 21.9 mph N/A   Overcast
12:14 PM 68.0 °F - 39.6 °F 35% 29.82 in 10.0 mi South 16.1 mph 21.9 mph N/A   Overcast
12:34 PM 69.3 °F - 40.5 °F 35% 29.83 in 10.0 mi South 9.2 mph 23.0 mph N/A   Overcast
12:54 PM 69.8 °F - 41.0 °F 35% 29.83 in 10.0 mi SW 8.1 mph 18.4 mph N/A   Overcast
1:14 PM 69.3 °F - 41.0 °F 36% 29.84 in 10.0 mi South 4.6 mph - N/A   Overcast
1:34 PM 71.4 °F - 42.1 °F 35% 29.82 in 10.0 mi SW 8.1 mph 16.1 mph N/A   Overcast
1:54 PM 72.9 °F - 43.0 °F 34% 29.80 in 10.0 mi South 10.4 mph 17.3 mph N/A   Scattered Clouds
2:14 PM 74.1 °F - 43.3 °F 33% 29.80 in 10.0 mi SSW 8.1 mph 17.3 mph N/A   Scattered Clouds
2:34 PM 74.8 °F - 44.4 °F 34% 29.79 in 10.0 mi SW 10.4 mph 17.3 mph N/A   Scattered Clouds
2:54 PM 74.8 °F - 44.8 °F 34% 29.79 in 10.0 mi SW 8.1 mph 16.1 mph N/A   Scattered Clouds
3:14 PM 75.7 °F - 46.0 °F 35% 29.78 in 10.0 mi WSW 6.9 mph - N/A   Clear
3:34 PM 75.9 °F - 45.9 °F 34% 29.78 in 10.0 mi WSW 11.5 mph 17.3 mph N/A   Clear
3:54 PM 76.5 °F - 46.8 °F 35% 29.78 in 10.0 mi WSW 6.9 mph 17.3 mph N/A   Clear
4:14 PM 77.0 °F - 46.6 °F 34% 29.77 in 10.0 mi West 11.5 mph 18.4 mph N/A   Clear
4:34 PM 77.0 °F - 46.6 °F 34% 29.77 in 10.0 mi Calm Calm - N/A   Clear
4:54 PM 75.7 °F - 46.9 °F 36% 29.78 in 10.0 mi West 8.1 mph - N/A   Clear
5:14 PM 75.6 °F - 47.5 °F 37% 29.78 in 10.0 mi WSW 5.8 mph - N/A   Clear
5:34 PM 75.6 °F - 47.3 °F 37% 29.78 in 10.0 mi West 5.8 mph - N/A   Clear
5:54 PM 75.4 °F - 48.0 °F 38% 29.76 in 10.0 mi Calm Calm - N/A   Clear
6:14 PM 75.7 °F - 49.3 °F 39% 29.76 in 10.0 mi West 3.5 mph - N/A   Clear
6:35 PM 76.3 °F - 49.5 °F 39% 29.75 in 10.0 mi SW 4.6 mph - N/A   Clear
6:54 PM 76.6 °F - 49.5 °F 38% 29.74 in 10.0 mi WSW 4.6 mph - N/A   Clear
7:14 PM 77.0 °F - 50.4 °F 39% 29.74 in 10.0 mi WNW 5.8 mph - N/A   Clear
7:35 PM 76.6 °F - 51.1 °F 41% 29.74 in 10.0 mi WNW 5.8 mph - N/A   Scattered Clouds
7:54 PM 73.2 °F - 52.7 °F 48% 29.74 in 10.0 mi WNW 4.6 mph - N/A   Scattered Clouds
8:14 PM 72.5 °F - 52.7 °F 50% 29.74 in 10.0 mi WNW 3.5 mph - N/A   Clear
8:34 PM 72.9 °F - 52.2 °F 48% 29.75 in 10.0 mi WNW 3.5 mph - N/A   Clear
8:54 PM 70.3 °F - 53.8 °F 56% 29.74 in 10.0 mi Calm Calm - N/A Rain Light Rain
9:14 PM 67.6 °F - 54.9 °F 64% 29.71 in 10.0 mi SSE 3.5 mph - N/A   Scattered Clouds
9:34 PM 67.8 °F - 55.0 °F 64% 29.69 in 10.0 mi SE 4.6 mph - N/A   Scattered Clouds
9:54 PM 68.5 °F - 54.5 °F 61% 29.73 in 10.0 mi Calm Calm - N/A   Scattered Clouds
10:15 PM 68.9 °F - 54.1 °F 59% 29.74 in 10.0 mi Calm Calm - N/A   Scattered Clouds
10:34 PM 66.7 °F - 54.9 °F 66% 29.74 in 10.0 mi Calm Calm - N/A   Scattered Clouds
10:54 PM 65.5 °F - 55.4 °F 70% 29.74 in 10.0 mi Calm Calm - N/A   Clear
11:15 PM 64.6 °F - 55.8 °F 73% 29.74 in 10.0 mi Calm Calm - N/A   Clear
11:34 PM 63.3 °F - 56.5 °F 78% 29.73 in 10.0 mi Calm Calm - N/A   Clear
11:54 PM 63.3 °F - 55.6 °F 76% 29.72 in 10.0 mi Calm Calm - N/A   Clear